TimeCST,TemperatureF,Dew PointF,Humidity,Sea Level PressureIn,VisibilityMPH,Wind Direction,Wind SpeedMPH,Gust SpeedMPH,PrecipitationIn,Events,Conditions,WindDirDegrees,DateUTC
12:52 AM,8.1,3.9,83,29.97,10.0,Calm,Calm,-,N/A,,Clear,0,2013-02-05 06:52:00
1:52 AM,6.1,1.9,83,29.97,10.0,West,3.5,-,N/A,,Clear,260,2013-02-05 07:52:00
2:52 AM,6.1,1.9,83,29.94,10.0,Calm,Calm,-,N/A,,Clear,0,2013-02-05 08:52:00
3:52 AM,3.9,1.0,88,29.94,10.0,Calm,Calm,-,N/A,,Clear,0,2013-02-05 09:52:00
4:52 AM,10.0,6.1,84,29.95,10.0,WSW,3.5,-,N/A,,Overcast,250,2013-02-05 10:52:00
5:52 AM,14.0,8.1,77,29.94,10.0,SW,5.8,-,N/A,,Overcast,230,2013-02-05 11:52:00
6:33 AM,15.8,10.4,79,29.90,2.5,SSW,5.8,-,0.00,Snow,Light Snow,210,2013-02-05 12:33:00
6:52 AM,15.1,12.0,88,29.92,2.5,SSE,5.8,-,0.00,Snow,Light Snow,150,2013-02-05 12:52:00
7:25 AM,15.8,12.2,86,29.87,4.0,SE,5.8,-,0.00,,Overcast,130,2013-02-05 13:25:00
7:52 AM,16.0,14.0,92,29.91,6.0,South,8.1,-,0.00,,Overcast,180,2013-02-05 13:52:00
8:52 AM,19.9,17.1,89,29.88,7.0,South,8.1,-,N/A,,Clear,190,2013-02-05 14:52:00
9:52 AM,21.9,19.0,89,29.87,7.0,South,8.1,-,0.01,,Mostly Cloudy,180,2013-02-05 15:52:00
10:52 AM,27.0,23.0,85,29.86,7.0,SW,17.3,-,0.02,,Mostly Cloudy,220,2013-02-05 16:52:00
11:52 AM,28.9,24.1,82,29.86,6.0,WSW,13.8,-,0.01,,Haze,240,2013-02-05 17:52:00
12:52 PM,30.0,25.0,82,29.83,5.0,WSW,12.7,-,N/A,,Haze,240,2013-02-05 18:52:00
1:39 PM,30.2,26.6,86,29.81,1.8,West,15.0,-,0.00,Snow,Light Snow,260,2013-02-05 19:39:00
1:50 PM,30.2,26.6,86,29.81,0.8,West,12.7,-,0.00,Snow,Light Snow,270,2013-02-05 19:50:00
1:52 PM,30.0,27.0,88,29.85,0.8,West,12.7,-,0.00,Snow,Light Snow,270,2013-02-05 19:52:00
1:58 PM,28.4,28.4,100,29.81,0.2,West,15.0,-,0.00,Fog-Snow,Snow,270,2013-02-05 19:58:00
2:01 PM,28.4,28.4,100,29.81,0.5,West,13.8,-,0.00,Fog-Snow,Snow,270,2013-02-05 20:01:00
2:07 PM,28.4,28.4,100,29.81,1.0,West,13.8,-,0.01,Snow,Light Snow,280,2013-02-05 20:07:00
2:50 PM,30.2,28.4,93,29.82,2.0,West,9.2,-,0.01,Snow,Light Snow,270,2013-02-05 20:50:00
2:52 PM,30.0,28.0,92,29.86,3.0,West,9.2,-,0.01,Snow,Light Snow,270,2013-02-05 20:52:00
3:24 PM,30.2,26.6,86,29.85,1.8,West,15.0,-,0.00,Snow,Light Snow,280,2013-02-05 21:24:00
3:40 PM,30.2,26.6,86,29.86,3.0,WNW,11.5,-,0.00,,Overcast,290,2013-02-05 21:40:00
3:47 PM,30.2,26.6,86,29.86,3.0,WNW,9.2,-,0.00,,Overcast,290,2013-02-05 21:47:00
3:52 PM,30.0,27.0,88,29.90,3.0,WNW,9.2,-,0.00,,Overcast,290,2013-02-05 21:52:00
4:05 PM,30.2,26.6,86,29.87,4.0,WNW,12.7,-,N/A,,Overcast,290,2013-02-05 22:05:00
5:23 PM,28.4,24.8,86,29.92,6.0,WNW,18.4,-,N/A,,Haze,300,2013-02-05 23:23:00
5:52 PM,28.0,24.1,85,29.97,7.0,WNW,11.5,-,N/A,,Overcast,300,2013-02-05 23:52:00
6:52 PM,28.0,24.1,85,30.00,8.0,WNW,9.2,-,N/A,,Overcast,300,2013-02-06 00:52:00
7:52 PM,28.9,24.1,82,30.02,8.0,NW,9.2,-,N/A,,Overcast,320,2013-02-06 01:52:00
8:52 PM,28.9,24.1,82,30.04,8.0,WNW,3.5,-,N/A,,Overcast,300,2013-02-06 02:52:00
9:52 PM,30.0,23.0,75,30.06,9.0,WNW,6.9,-,N/A,,Overcast,300,2013-02-06 03:52:00
10:52 PM,28.9,23.0,78,30.07,8.0,NW,8.1,-,N/A,,Overcast,320,2013-02-06 04:52:00
11:52 PM,28.9,21.9,75,30.11,9.0,North,6.9,-,N/A,,Overcast,350,2013-02-06 05:52:00